• En España
  • Lista de países
  • Para 7 días
  • Temperatura del agua
  • Mapa Satelital
  • El tiempo en el mapa
  • Informadores
  • user-avatar
    Iniciar sesión

    Tiempo cada hora Kolodino

    Hoy, 19 Septiembre, Miércoles

    Tiempo Temperatura Precipitaciones Viento Presión Humedad
    00:00 +9°C° 0 mm 2 mps 743 mmHg 90%
    01:00 +9°C° 0 mm 2 mps 743 mmHg 90%
    02:00 +9°C° 0 mm 2 mps 742 mmHg 90%
    03:00 +10°C° 0.1 mm 2 mps 742 mmHg 90%
    04:00 +10°C° 0.1 mm 3 mps 742 mmHg 90%
    05:00 +11°C° 0.1 mm 3 mps 742 mmHg 90%
    06:00 +12°C° 0 mm 3 mps 742 mmHg 88%
    07:00 +13°C° 0 mm 4 mps 741 mmHg 85%
    08:00 +14°C° 0 mm 4 mps 741 mmHg 83%
    09:00 +17°C° 0 mm 4 mps 741 mmHg 75%
    10:00 +18°C° 0 mm 4 mps 741 mmHg 67%
    11:00 +20°C° 0 mm 5 mps 741 mmHg 59%
    12:00 +21°C° 0 mm 5 mps 741 mmHg 56%
    13:00 +22°C° 0 mm 5 mps 741 mmHg 53%
    14:00 +23°C° 0 mm 5 mps 741 mmHg 50%
    15:00 +22°C° 0 mm 4 mps 740 mmHg 57%
    16:00 +20°C° 0 mm 3 mps 740 mmHg 63%
    17:00 +19°C° 0 mm 3 mps 740 mmHg 70%
    18:00 +18°C° 0 mm 3 mps 740 mmHg 75%
    19:00 +17°C° 0 mm 3 mps 740 mmHg 80%
    20:00 +16°C° 0 mm 3 mps 740 mmHg 86%
    21:00 +16°C° 0 mm 3 mps 740 mmHg 88%
    22:00 +16°C° 0 mm 3 mps 740 mmHg 90%
    23:00 +16°C° 0 mm 3 mps 740 mmHg 92%

    Mañana, 20 Septiembre, Jueves

    Tiempo Temperatura Precipitaciones Viento Presión Humedad
    00:00 +14°C° 0 mm 3 mps 740 mmHg 93%
    01:00 +14°C° 0 mm 3 mps 740 mmHg 94%
    02:00 +14°C° 0 mm 3 mps 741 mmHg 95%
    03:00 +14°C° 0 mm 3 mps 741 mmHg 96%
    04:00 +14°C° 0 mm 3 mps 741 mmHg 96%
    05:00 +13°C° 0 mm 3 mps 741 mmHg 97%
    06:00 +14°C° 0 mm 3 mps 741 mmHg 94%
    07:00 +14°C° 0 mm 3 mps 742 mmHg 90%
    08:00 +15°C° 0 mm 4 mps 742 mmHg 86%
    09:00 +17°C° 0 mm 3 mps 742 mmHg 80%
    10:00 +18°C° 0 mm 3 mps 742 mmHg 73%
    11:00 +20°C° 0 mm 3 mps 743 mmHg 66%
    12:00 +21°C° 0 mm 3 mps 743 mmHg 63%
    13:00 +21°C° 0 mm 3 mps 743 mmHg 60%
    14:00 +22°C° 0 mm 3 mps 743 mmHg 57%
    15:00 +21°C° 0 mm 2 mps 743 mmHg 63%
    16:00 +20°C° 0 mm 2 mps 743 mmHg 69%
    17:00 +19°C° 0 mm 2 mps 743 mmHg 74%
    18:00 +18°C° 0 mm 2 mps 743 mmHg 79%
    19:00 +16°C° 0 mm 2 mps 743 mmHg 83%
    20:00 +15°C° 0 mm 2 mps 743 mmHg 88%
    21:00 +15°C° 0 mm 2 mps 743 mmHg 90%
    22:00 +14°C° 0 mm 2 mps 744 mmHg 92%
    23:00 +14°C° 0 mm 2 mps 744 mmHg 94%

    Pasado mañana, 21 Septiembre, Viernes

    Tiempo Temperatura Precipitaciones Viento Presión Humedad
    00:00 +14°C° 0 mm 2 mps 744 mmHg 94%
    01:00 +14°C° 0 mm 2 mps 744 mmHg 95%
    02:00 +14°C° 0 mm 2 mps 744 mmHg 95%
    03:00 +13°C° 0 mm 2 mps 744 mmHg 95%
    04:00 +13°C° 0 mm 2 mps 744 mmHg 95%
    05:00 +13°C° 0 mm 2 mps 744 mmHg 95%
    06:00 +15°C° 0 mm 2 mps 745 mmHg 90%
    07:00 +16°C° 0 mm 2 mps 745 mmHg 85%
    08:00 +17°C° 0 mm 2 mps 745 mmHg 81%
    09:00 +19°C° 0 mm 2 mps 745 mmHg 76%
    10:00 +21°C° 0 mm 3 mps 745 mmHg 71%
    11:00 +22°C° 0 mm 3 mps 745 mmHg 66%
    12:00 +24°C° 0 mm 3 mps 745 mmHg 64%
    13:00 +24°C° 0 mm 3 mps 745 mmHg 63%
    14:00 +25°C° 0 mm 3 mps 745 mmHg 61%
    15:00 +24°C° 0 mm 3 mps 745 mmHg 67%
    16:00 +23°C° 0 mm 2 mps 744 mmHg 73%
    17:00 +21°C° 0 mm 2 mps 744 mmHg 79%
    18:00 +20°C° 0 mm 2 mps 744 mmHg 82%
    19:00 +19°C° 0 mm 2 mps 744 mmHg 86%
    20:00 +18°C° 0 mm 2 mps 744 mmHg 89%
    21:00 +17°C° 0 mm 3 mps 744 mmHg 91%
    22:00 +17°C° 0 mm 3 mps 744 mmHg 93%
    23:00 +17°C° 0 mm 3 mps 744 mmHg 94%

    22 Septiembre, Sábado

    Tiempo Temperatura Precipitaciones Viento Presión Humedad
    00:00 +17°C° 0 mm 3 mps 743 mmHg 95%
    01:00 +17°C° 0 mm 3 mps 743 mmHg 95%
    02:00 +16°C° 0 mm 3 mps 743 mmHg 95%
    03:00 +16°C° 0 mm 3 mps 742 mmHg 94%
    04:00 +16°C° 0 mm 3 mps 742 mmHg 94%
    05:00 +15°C° 0 mm 4 mps 742 mmHg 93%
    06:00 +17°C° 0 mm 4 mps 741 mmHg 87%
    07:00 +17°C° 0 mm 5 mps 741 mmHg 81%
    08:00 +19°C° 0 mm 5 mps 740 mmHg 75%
    09:00 +20°C° 0 mm 6 mps 740 mmHg 68%
    10:00 +22°C° 0 mm 6 mps 739 mmHg 62%
    11:00 +23°C° 0 mm 7 mps 739 mmHg 55%
    12:00 +23°C° 0 mm 6 mps 739 mmHg 55%
    13:00 +23°C° 0 mm 6 mps 739 mmHg 55%
    14:00 +24°C° 0 mm 6 mps 739 mmHg 54%
    15:00 +21°C° 0.3 mm 5 mps 739 mmHg 62%
    16:00 +19°C° 0.3 mm 5 mps 739 mmHg 71%
    17:00 +17°C° 0.3 mm 4 mps 739 mmHg 79%
    18:00 +14°C° 0.1 mm 3 mps 740 mmHg 80%
    19:00 +13°C° 0.1 mm 3 mps 740 mmHg 81%
    20:00 +11°C° 0.1 mm 3 mps 740 mmHg 83%
    21:00 +12°C° 0.4 mm 2 mps 740 mmHg 84%
    22:00 +10°C° 0.4 mm 2 mps 740 mmHg 86%
    23:00 +10°C° 0.4 mm 2 mps 740 mmHg 88%

    23 Septiembre, Domingo

    Tiempo Temperatura Precipitaciones Viento Presión Humedad
    00:00 +10°C° 0.7 mm 2 mps 740 mmHg 89%
    01:00 +10°C° 0.7 mm 2 mps 740 mmHg 91%
    02:00 +10°C° 0.7 mm 2 mps 740 mmHg 92%
    03:00 +9°C° 0.4 mm 2 mps 740 mmHg 93%
    04:00 +10°C° 0.4 mm 1 mps 740 mmHg 94%
    05:00 +10°C° 0.4 mm 1 mps 739 mmHg 94%
    06:00 +10°C° 0.7 mm 1 mps 739 mmHg 94%
    07:00 +10°C° 0.7 mm 1 mps 739 mmHg 94%
    08:00 +9°C° 0.7 mm 2 mps 739 mmHg 94%
    09:00 +10°C° 0.9 mm 1 mps 739 mmHg 93%
    10:00 +10°C° 0.9 mm 1 mps 739 mmHg 92%
    11:00 +11°C° 0.9 mm 1 mps 738 mmHg 92%
    12:00 +11°C° 0.8 mm 1 mps 738 mmHg 90%
    13:00 +11°C° 0.8 mm 1 mps 738 mmHg 89%
    14:00 +11°C° 0.8 mm 1 mps 738 mmHg 87%
    15:00 +11°C° 0.2 mm 1 mps 738 mmHg 88%
    16:00 +11°C° 0.2 mm 1 mps 738 mmHg 89%
    17:00 +11°C° 0.2 mm 1 mps 738 mmHg 89%
    18:00 +10°C° 0 mm 1 mps 738 mmHg 91%
    19:00 +10°C° 0 mm 1 mps 738 mmHg 92%
    20:00 +9°C° 0 mm 1 mps 738 mmHg 93%
    21:00 +8°C° 0 mm 2 mps 738 mmHg 94%
    22:00 +7°C° 0 mm 2 mps 738 mmHg 95%
    23:00 +6°C° 0 mm 2 mps 738 mmHg 95%

    24 Septiembre, Lunes

    Tiempo Temperatura Precipitaciones Viento Presión Humedad
    00:00 +6°C° 0 mm 2 mps 738 mmHg 95%
    01:00 +6°C° 0 mm 2 mps 738 mmHg 96%
    02:00 +6°C° 0 mm 2 mps 738 mmHg 96%
    03:00 +5°C° 0 mm 2 mps 738 mmHg 96%
    04:00 +5°C° 0 mm 2 mps 738 mmHg 96%
    05:00 +6°C° 0 mm 1 mps 738 mmHg 96%
    06:00 +7°C° 0 mm 1 mps 738 mmHg 93%
    07:00 +7°C° 0 mm 2 mps 739 mmHg 91%
    08:00 +8°C° 0 mm 2 mps 739 mmHg 88%
    09:00 +9°C° 0 mm 2 mps 739 mmHg 80%
    10:00 +12°C° 0 mm 2 mps 739 mmHg 73%
    11:00 +13°C° 0 mm 2 mps 739 mmHg 66%
    12:00 +14°C° 0 mm 2 mps 739 mmHg 62%
    13:00 +14°C° 0 mm 2 mps 739 mmHg 58%
    14:00 +15°C° 0 mm 2 mps 739 mmHg 55%
    15:00 +14°C° 0 mm 2 mps 738 mmHg 61%
    16:00 +13°C° 0 mm 2 mps 738 mmHg 67%
    17:00 +12°C° 0 mm 2 mps 737 mmHg 74%
    18:00 +10°C° 0 mm 2 mps 737 mmHg 75%
    19:00 +10°C° 0 mm 2 mps 737 mmHg 76%
    20:00 +9°C° 0 mm 2 mps 737 mmHg 78%
    21:00 +9°C° 0.1 mm 3 mps 737 mmHg 79%
    22:00 +9°C° 0.1 mm 3 mps 736 mmHg 80%
    23:00 +9°C° 0.1 mm 3 mps 736 mmHg 81%
    Mostrar más